Weather in Norfolk

United States     42°01′56″N   97°25′34″W
temp.,
°C
wind,
m/s
gust,
m/s
humid.,
%
clouds,
%
prec.,
mm/h
press.,
hPa
HPBL,
m
18 september, sat
sat1801:00+14se34570 0.0 102256
04:00+13sse23590 0.0 102239
07:00+13sse35690 0.0 102289
10:00+19s59560 0.0 1020373
13:00+26s710520 0.0 10171051
16:00+31ssw711420 0.0 10131705
19:00+28s612490 0.0 1012363
22:00+26s816490 0.0 1013631
19 september, sun
sun1901:00+24s817550 0.0 1013646
04:00+22s718670 0.0 1012614
07:00+21s7186622 0.0 1012570
10:00+24s81760100 0.0 1010745
13:00+30s10143910 0.0 10071600
16:00+33s9133381 0.0 10042433
19:00+30s7143798 0.0 1003560
22:00+28sse916355 0.1 1004840
20 september, mon
mon2001:00+23s9206695 0.4 1003764
04:00+21s41282100 1.1 1003436
07:00+18w34936 1.9 100577
10:00+18nnw71088100 0.7 1008735
13:00+19nnw9126291 0.8 1011932
16:00+22nnw8104622 0.0 10111613
19:00+17nnw71258100 0.0 1015861
22:00+15nnw410572 0.0 1018318
21 september, tue
tue2101:00+12nnw36670 0.0 102099
04:00+11nw35680 0.0 102275
07:00+11wnw35660 0.0 102469
10:00+17wnw45501 0.0 1025376
13:00+21nnw453927 0.0 10251477
16:00+21nnw353785 0.0 10232055
19:00+18n33503 0.0 102434
22:00+14ne224985 0.0 102619
22 september, wed
wed2201:00+12e22510 0.0 102611
04:00+11ese22545 0.0 102610
07:00+10se23573 0.0 102724
10:00+16sse46450 0.0 1026335
13:00+23sse67320 0.0 10231339
16:00+25sse67265 0.0 10192050
19:00+21se511370 0.0 1018191
22:00+18se818340 0.0 1018489